Weather in Vilkovo

Ukraine / Odesa District     45°24′10″N   29°35′00″E
temp.,
°C
wind,
m/s
gust,
m/s
humid.,
%
clouds,
%
prec.,
mm/h
press.,
hPa
HPBL,
m
22 april, thu
thu2200:00+10ssw33805 0.0 101849
03:00+9ssw338412 0.1 101835
06:00+9ssw22845 0.0 101918
09:00+14ssw34615 0.0 1020328
12:00+18sw45452 0.0 10191715
15:00+18ssw5745100 0.1 10191496
18:00+16ssw69527 0.0 1018576
21:00+12s5126754 0.0 1019285
23 april, fri
fri2300:00+12s61171100 0.0 1018252
03:00+11s41083100 0.0 1018211
06:00+10ssw4881100 0.0 1017169
09:00+15ssw3566100 0.0 1018355
12:00+17wsw6755100 1.1 10171196
15:00+14wnw4662100 1.4 1017854
18:00+12wsw267935 1.3 1017427
21:00+8n5888100 2.4 1020430
24 april, sat
sat2400:00+7nnw47907 0.0 1021295
03:00+5nnw34890 0.0 102195
06:00+5wnw33870 0.0 102151
09:00+10nw34622 0.0 1023457
12:00+14nw344584 0.0 10221867
15:00+13n555284 0.0 10231254
18:00+13n3446100 0.0 10231469
21:00+9se2267100 0.0 102436
25 april, sun
sun2500:00+7ssw1175100 0.0 102517
03:00+7sse11775 0.0 102417
06:00+6sse22805 0.0 102326
09:00+12sse34445 0.0 1023607
12:00+15sse443877 0.0 10221640
15:00+15s454085 0.0 10201586
18:00+14s564499 0.0 1019918
21:00+9s485692 0.0 1020212
26 april, mon
mon2600:00+8se2375100 1.1 1021121
03:00+9nw2273100 1.6 1020121
06:00+7nne478598 0.0 1021307
09:00+9nne45540 0.0 1022694
12:00+12ne23384 0.0 10221432
15:00+14e143751 0.0 10211903
18:00+13sse544290 0.0 1020745
21:00+8s510608 0.0 1020279